Retour au catalogue

KUIPER-00353

ActifCommunicationsLEO
NORAD 68865·PAYLOAD·🇺🇸 United States

Lancé Apr 28, 2026 depuis Cape Canaveral Space Force Station

Loading…

Prochains Passages (prochaines 24 heures)

TLE

FraisSource: CelesTrak SupGP

Époque: Sep 15, 2026, 04:50 UTC

1 68865C 26095B   26258.20185185 -.00014529  00000+0 -19022-2 0  2584
2 68865  51.8992 197.6146 0000696 100.2895 275.9013 14.79937770    11

Suivez KUIPER-00353 en temps réel avec AllMySat

Download on the App Store